Tracking 31027 objects as of 19-Jul-2025
HD Live streaming from Space Station
objects crossing your sky now

SL-3 R/B

Track SL-3 R/B now!
10-day predictions


NORAD ID: 13771
Int'l Code: 1983-003B
Perigee: 463.4 km
Apogee: 505.4 km
Inclination: 81.2 °
Period: 94.1 minutes
Semi major axis: 6855 km
RCS: 6.3643 m2 (large)
Launch date: January 20, 1983
Source: Commonwealth of Independent States (former USSR) (CIS)
Launch site: PLESETSK MISSILE AND SPACE COMPLEX (PKMTR)

Note: This is a ROCKET BODY
Your satellite tracking list
STARLINK-31879
Track 1 satellite(s)




NASA's NSSDC Master Catalog

Two Line Element Set (TLE):
1 13771U 83003B   25199.47121482  .00005352  00000-0  18356-3 0  9999
2 13771  81.1595 181.3887 0030638 237.6567 122.1702 15.29518680320535
Source of the keplerian elements: AFSPC